Time,TemperatureF,DewpointF,PressureIn,WindDirection,WindDirectionDegrees,WindSpeedMPH,WindSpeedGustMPH,Humidity,HourlyPrecipIn,Conditions,Clouds,dailyrainin,SoftwareType,DateUTC
2013-04-06 00:00:00,36.0,22.2,30.13,NNW,333,5.0,5.0,57,0.00,,,0.00,Wunderground v.1.15,2013-04-06 04:00:00,
2013-04-06 00:02:00,35.9,22.1,30.13,North,9,5.0,5.0,57,0.00,,,0.00,Wunderground v.1.15,2013-04-06 04:02:00,
2013-04-06 00:08:00,35.6,22.3,30.13,NNW,334,4.0,5.0,58,0.00,,,0.00,Wunderground v.1.15,2013-04-06 04:08:00,
2013-04-06 00:10:00,35.4,22.1,30.13,NNW,334,4.0,4.0,58,0.00,,,0.00,Wunderground v.1.15,2013-04-06 04:10:00,
2013-04-06 00:14:00,35.0,22.1,30.13,NNW,336,3.0,4.0,59,0.00,,,0.00,Wunderground v.1.15,2013-04-06 04:14:00,
2013-04-06 00:20:00,34.6,22.1,30.13,NNW,339,3.0,4.0,60,0.00,,,0.00,Wunderground v.1.15,2013-04-06 04:20:00,
2013-04-06 00:26:00,34.5,22.4,30.13,North,5,5.0,9.0,61,0.00,,,0.00,Wunderground v.1.15,2013-04-06 04:26:00,
2013-04-06 00:34:00,34.6,22.5,30.14,NNW,346,6.0,10.0,61,0.00,,,0.00,Wunderground v.1.15,2013-04-06 04:34:00,
2013-04-06 00:40:00,34.5,22.4,30.14,NNW,346,5.0,5.0,61,0.00,,,0.00,Wunderground v.1.15,2013-04-06 04:40:00,
2013-04-06 00:48:00,34.4,22.3,30.14,NNE,22,4.0,5.0,61,0.00,,,0.00,Wunderground v.1.15,2013-04-06 04:48:00,
2013-04-06 00:54:00,33.3,22.1,30.14,NW,319,4.0,6.0,63,0.00,,,0.00,Wunderground v.1.15,2013-04-06 04:54:00,
2013-04-06 01:00:00,33.5,21.9,30.15,NNW,344,3.0,3.0,62,0.00,,,0.00,Wunderground v.1.15,2013-04-06 05:00:00,
2013-04-06 01:08:00,33.7,22.4,30.15,North,355,3.0,5.0,63,0.00,,,0.00,Wunderground v.1.15,2013-04-06 05:08:00,
2013-04-06 01:14:00,34.2,22.5,30.15,NNW,327,5.0,8.0,62,0.00,,,0.00,Wunderground v.1.15,2013-04-06 05:14:00,
2013-04-06 01:20:00,34.2,22.5,30.16,NNW,345,5.0,5.0,62,0.00,,,0.00,Wunderground v.1.15,2013-04-06 05:20:00,
2013-04-06 01:28:00,33.9,22.2,30.15,NNE,26,5.0,5.0,62,0.00,,,0.00,Wunderground v.1.15,2013-04-06 05:28:00,
2013-04-06 01:34:00,33.8,22.5,30.16,North,360,5.0,8.0,63,0.00,,,0.00,Wunderground v.1.15,2013-04-06 05:34:00,
2013-04-06 01:40:00,33.8,22.1,30.16,NNE,15,5.0,5.0,62,0.00,,,0.00,Wunderground v.1.15,2013-04-06 05:40:00,
2013-04-06 01:48:00,33.7,22.4,30.16,North,9,5.0,5.0,63,0.00,,,0.00,Wunderground v.1.15,2013-04-06 05:48:00,
2013-04-06 01:54:00,33.5,22.2,30.16,WNW,288,5.0,11.0,63,0.00,,,0.00,Wunderground v.1.15,2013-04-06 05:54:00,
2013-04-06 02:00:00,33.6,22.3,30.16,North,360,5.0,5.0,63,0.00,,,0.00,Wunderground v.1.15,2013-04-06 06:00:00,
2013-04-06 02:08:00,33.5,22.6,30.16,NNW,347,5.0,9.0,64,0.00,,,0.00,Wunderground v.1.15,2013-04-06 06:08:00,
2013-04-06 02:14:00,33.2,22.3,30.16,NW,309,5.0,9.0,64,0.00,,,0.00,Wunderground v.1.15,2013-04-06 06:14:00,
2013-04-06 02:20:00,33.1,22.6,30.16,NNW,336,6.0,8.0,65,0.00,,,0.00,Wunderground v.1.15,2013-04-06 06:20:00,
2013-04-06 02:26:00,33.1,22.2,30.16,NNE,19,5.0,8.0,64,0.00,,,0.00,Wunderground v.1.15,2013-04-06 06:26:00,
2013-04-06 02:32:00,32.8,22.3,30.16,NW,319,5.0,8.0,65,0.00,,,0.00,Wunderground v.1.15,2013-04-06 06:32:00,
2013-04-06 02:38:00,32.7,22.2,30.16,NW,318,5.0,8.0,65,0.00,,,0.00,Wunderground v.1.15,2013-04-06 06:38:00,
2013-04-06 02:44:00,32.6,22.5,30.16,NNW,338,5.0,5.0,66,0.00,,,0.00,Wunderground v.1.15,2013-04-06 06:44:00,
2013-04-06 02:50:00,32.4,22.3,30.16,North,349,4.0,4.0,66,0.00,,,0.00,Wunderground v.1.15,2013-04-06 06:50:00,
2013-04-06 02:56:00,32.1,22.4,30.17,North,355,5.0,10.0,67,0.00,,,0.00,Wunderground v.1.15,2013-04-06 06:56:00,
2013-04-06 03:02:00,31.9,22.5,30.17,NNW,339,6.0,8.0,68,0.00,,,0.00,Wunderground v.1.15,2013-04-06 07:02:00,
2013-04-06 03:08:00,32.0,22.6,30.17,North,351,7.0,9.0,68,0.00,,,0.00,Wunderground v.1.15,2013-04-06 07:08:00,
2013-04-06 03:14:00,31.7,22.3,30.17,NNW,330,6.0,7.0,68,0.00,,,0.00,Wunderground v.1.15,2013-04-06 07:14:00,
2013-04-06 03:20:00,31.7,22.3,30.17,NNE,32,6.0,6.0,68,0.00,,,0.00,Wunderground v.1.15,2013-04-06 07:20:00,
2013-04-06 03:28:00,31.7,22.3,30.17,North,11,6.0,8.0,68,0.00,,,0.00,Wunderground v.1.15,2013-04-06 07:28:00,
2013-04-06 03:34:00,31.7,22.3,30.17,NNW,327,5.0,6.0,68,0.00,,,0.00,Wunderground v.1.15,2013-04-06 07:34:00,
2013-04-06 03:40:00,31.4,22.1,30.17,NNW,334,5.0,6.0,68,0.00,,,0.00,Wunderground v.1.15,2013-04-06 07:40:00,
2013-04-06 03:46:00,31.3,22.3,30.17,NNW,342,5.0,6.0,69,0.00,,,0.00,Wunderground v.1.15,2013-04-06 07:46:00,
2013-04-06 03:52:00,31.1,22.1,30.17,NNW,342,4.0,5.0,69,0.00,,,0.00,Wunderground v.1.15,2013-04-06 07:52:00,
2013-04-06 03:58:00,30.6,22.0,30.17,NNE,15,5.0,8.0,70,0.00,,,0.00,Wunderground v.1.15,2013-04-06 07:58:00,
2013-04-06 04:04:00,30.3,22.0,30.17,NNE,16,5.0,6.0,71,0.00,,,0.00,Wunderground v.1.15,2013-04-06 08:04:00,
2013-04-06 04:10:00,30.3,22.0,30.17,North,11,6.0,6.0,71,0.00,,,0.00,Wunderground v.1.15,2013-04-06 08:10:00,
2013-04-06 04:16:00,30.5,22.2,30.17,NNW,342,5.0,6.0,71,0.00,,,0.00,Wunderground v.1.15,2013-04-06 08:16:00,
2013-04-06 04:22:00,30.6,22.0,30.17,North,355,5.0,6.0,70,0.00,,,0.00,Wunderground v.1.15,2013-04-06 08:22:00,
2013-04-06 04:28:00,30.5,21.9,30.17,NNE,13,5.0,8.0,70,0.00,,,0.00,Wunderground v.1.15,2013-04-06 08:28:00,
2013-04-06 04:36:00,30.1,21.5,30.17,NE,46,4.0,4.0,70,0.00,,,0.00,Wunderground v.1.15,2013-04-06 08:36:00,
2013-04-06 04:42:00,29.3,21.4,30.18,NE,41,4.0,4.0,72,0.00,,,0.00,Wunderground v.1.15,2013-04-06 08:42:00,
2013-04-06 04:48:00,29.2,21.6,30.18,NE,44,4.0,5.0,73,0.00,,,0.00,Wunderground v.1.15,2013-04-06 08:48:00,
2013-04-06 04:54:00,29.5,21.9,30.18,ENE,58,4.0,5.0,73,0.00,,,0.00,Wunderground v.1.15,2013-04-06 08:54:00,
2013-04-06 05:00:00,29.3,21.7,30.18,NE,44,4.0,5.0,73,0.00,,,0.00,Wunderground v.1.15,2013-04-06 09:00:00,
2013-04-06 05:06:00,29.0,21.4,30.18,NNE,26,5.0,6.0,73,0.00,,,0.00,Wunderground v.1.15,2013-04-06 09:06:00,
2013-04-06 05:12:00,29.4,21.8,30.18,NNE,13,6.0,7.0,73,0.00,,,0.00,Wunderground v.1.15,2013-04-06 09:12:00,
2013-04-06 05:18:00,29.4,21.8,30.19,NNE,19,6.0,7.0,73,0.00,,,0.00,Wunderground v.1.15,2013-04-06 09:18:00,
2013-04-06 05:26:00,28.8,21.2,30.19,NNE,17,4.0,6.0,73,0.00,,,0.00,Wunderground v.1.15,2013-04-06 09:26:00,
2013-04-06 05:32:00,28.3,21.1,30.20,NNE,17,3.0,3.0,74,0.00,,,0.00,Wunderground v.1.15,2013-04-06 09:32:00,
2013-04-06 05:38:00,27.8,20.6,30.20,NNE,17,2.0,3.0,74,0.00,,,0.00,Wunderground v.1.15,2013-04-06 09:38:00,
2013-04-06 05:44:00,27.5,20.6,30.20,NNE,17,0.0,1.0,75,0.00,,,0.00,Wunderground v.1.15,2013-04-06 09:44:00,
2013-04-06 05:50:00,27.2,20.6,30.21,NNE,17,0.0,0.0,76,0.00,,,0.00,Wunderground v.1.15,2013-04-06 09:50:00,
2013-04-06 05:58:00,27.1,20.8,30.22,NNE,17,0.0,2.0,77,0.00,,,0.00,Wunderground v.1.15,2013-04-06 09:58:00,
2013-04-06 06:08:00,26.9,21.0,30.22,NNE,17,2.0,3.0,78,0.00,,,0.00,Wunderground v.1.15,2013-04-06 10:08:00,
2013-04-06 06:14:00,26.7,20.5,30.22,NNE,17,1.0,2.0,77,0.00,,,0.00,Wunderground v.1.15,2013-04-06 10:14:00,
2013-04-06 06:20:00,26.5,20.3,30.23,NNE,17,0.0,2.0,77,0.00,,,0.00,Wunderground v.1.15,2013-04-06 10:20:00,
2013-04-06 06:26:00,26.3,20.4,30.24,NNE,17,1.0,2.0,78,0.00,,,0.00,Wunderground v.1.15,2013-04-06 10:26:00,
2013-04-06 06:32:00,25.6,19.7,30.24,NNE,17,0.0,1.0,78,0.00,,,0.00,Wunderground v.1.15,2013-04-06 10:32:00,
2013-04-06 06:38:00,25.4,19.5,30.24,NNE,17,0.0,1.0,78,0.00,,,0.00,Wunderground v.1.15,2013-04-06 10:38:00,
2013-04-06 06:44:00,24.9,19.6,30.25,NNE,17,0.0,0.0,80,0.00,,,0.00,Wunderground v.1.15,2013-04-06 10:44:00,
2013-04-06 06:50:00,24.2,18.9,30.25,NNE,17,0.0,0.0,80,0.00,,,0.00,Wunderground v.1.15,2013-04-06 10:50:00,
2013-04-06 06:58:00,23.8,18.5,30.26,NNE,17,0.0,0.0,80,0.00,,,0.00,Wunderground v.1.15,2013-04-06 10:58:00,
2013-04-06 07:06:00,23.5,18.8,30.26,NNE,17,0.0,0.0,82,0.00,,,0.00,Wunderground v.1.15,2013-04-06 11:06:00,
2013-04-06 07:12:00,23.5,18.8,30.26,NNE,17,0.0,0.0,82,0.00,,,0.00,Wunderground v.1.15,2013-04-06 11:12:00,
2013-04-06 07:18:00,23.6,19.5,30.27,NNE,17,0.0,0.0,84,0.00,,,0.00,Wunderground v.1.15,2013-04-06 11:18:00,
2013-04-06 07:24:00,23.9,19.5,30.27,NNE,17,0.0,0.0,83,0.00,,,0.00,Wunderground v.1.15,2013-04-06 11:24:00,
2013-04-06 07:30:00,24.0,19.9,30.27,NNE,17,0.0,0.0,84,0.00,,,0.00,Wunderground v.1.15,2013-04-06 11:30:00,
2013-04-06 07:36:00,24.4,20.3,30.28,NNE,17,0.0,0.0,84,0.00,,,0.00,Wunderground v.1.15,2013-04-06 11:36:00,
2013-04-06 07:42:00,25.1,20.7,30.28,NNE,17,0.0,1.0,83,0.00,,,0.00,Wunderground v.1.15,2013-04-06 11:42:00,
2013-04-06 07:48:00,26.2,21.7,30.28,NE,50,1.0,3.0,83,0.00,,,0.00,Wunderground v.1.15,2013-04-06 11:48:00,
2013-04-06 07:58:00,28.4,23.0,30.29,NE,49,1.0,2.0,80,0.00,,,0.00,Wunderground v.1.15,2013-04-06 11:58:00,
2013-04-06 08:04:00,29.2,23.2,30.29,NE,49,0.0,2.0,78,0.00,,,0.00,Wunderground v.1.15,2013-04-06 12:04:00,
2013-04-06 08:10:00,29.7,23.4,30.30,NE,49,0.0,0.0,77,0.00,,,0.00,Wunderground v.1.15,2013-04-06 12:10:00,
2013-04-06 08:16:00,30.4,23.4,30.30,NE,49,0.0,0.0,75,0.00,,,0.00,Wunderground v.1.15,2013-04-06 12:16:00,
2013-04-06 08:22:00,31.2,23.2,30.31,NE,50,0.0,0.0,72,0.00,,,0.00,Wunderground v.1.15,2013-04-06 12:22:00,
2013-04-06 08:28:00,31.7,23.4,30.30,NE,49,1.0,2.0,71,0.00,,,0.00,Wunderground v.1.15,2013-04-06 12:28:00,
2013-04-06 08:34:00,32.3,23.6,30.30,NE,49,2.0,3.0,70,0.00,,,0.00,Wunderground v.1.15,2013-04-06 12:34:00,
2013-04-06 08:40:00,32.8,23.7,30.30,NNE,26,2.0,3.0,69,0.00,,,0.00,Wunderground v.1.15,2013-04-06 12:40:00,
2013-04-06 08:46:00,33.1,23.0,30.31,NE,42,3.0,4.0,66,0.00,,,0.00,Wunderground v.1.15,2013-04-06 12:46:00,
2013-04-06 08:52:00,33.4,22.9,30.31,NE,42,2.0,3.0,65,0.00,,,0.00,Wunderground v.1.15,2013-04-06 12:52:00,
2013-04-06 08:58:00,33.9,22.6,30.31,NE,56,2.0,3.0,63,0.00,,,0.00,Wunderground v.1.15,2013-04-06 12:58:00,
2013-04-06 09:04:00,33.8,22.1,30.31,NE,56,2.0,3.0,62,0.00,,,0.00,Wunderground v.1.15,2013-04-06 13:04:00,
2013-04-06 09:10:00,34.0,22.7,30.31,East,101,2.0,3.0,63,0.00,,,0.00,Wunderground v.1.15,2013-04-06 13:10:00,
2013-04-06 09:18:00,34.3,22.2,30.31,NW,310,2.0,4.0,61,0.00,,,0.00,Wunderground v.1.15,2013-04-06 13:18:00,
2013-04-06 09:24:00,34.5,22.8,30.31,NNE,13,2.0,4.0,62,0.00,,,0.00,Wunderground v.1.15,2013-04-06 13:24:00,
2013-04-06 09:30:00,34.7,22.6,30.31,East,88,3.0,3.0,61,0.00,,,0.00,Wunderground v.1.15,2013-04-06 13:30:00,
2013-04-06 09:36:00,35.2,23.9,30.32,ESE,107,2.0,4.0,63,0.00,,,0.00,Wunderground v.1.15,2013-04-06 13:36:00,
2013-04-06 09:42:00,35.8,22.5,30.31,East,80,4.0,5.0,58,0.00,,,0.00,Wunderground v.1.15,2013-04-06 13:42:00,
2013-04-06 09:48:00,35.7,23.2,30.32,East,85,5.0,5.0,60,0.00,,,0.00,Wunderground v.1.15,2013-04-06 13:48:00,
2013-04-06 09:54:00,35.8,22.9,30.32,ESE,123,3.0,7.0,59,0.00,,,0.00,Wunderground v.1.15,2013-04-06 13:54:00,
2013-04-06 10:00:00,36.2,22.8,30.31,ENE,64,2.0,8.0,58,0.00,,,0.00,Wunderground v.1.15,2013-04-06 14:00:00,
2013-04-06 10:08:00,36.3,21.7,30.32,NE,35,4.0,8.0,55,0.00,,,0.00,Wunderground v.1.15,2013-04-06 14:08:00,
2013-04-06 10:14:00,36.6,22.8,30.32,NNE,32,4.0,7.0,57,0.00,,,0.00,Wunderground v.1.15,2013-04-06 14:14:00,
2013-04-06 10:20:00,36.9,22.7,30.31,NE,40,3.0,9.0,56,0.00,,,0.00,Wunderground v.1.15,2013-04-06 14:20:00,
2013-04-06 10:26:00,37.2,22.5,30.32,NE,44,4.0,9.0,55,0.00,,,0.00,Wunderground v.1.15,2013-04-06 14:26:00,
2013-04-06 10:32:00,37.6,22.4,30.31,NNE,18,5.0,9.0,54,0.00,,,0.00,Wunderground v.1.15,2013-04-06 14:32:00,
2013-04-06 10:38:00,37.9,21.8,30.31,ENE,61,6.0,9.0,52,0.00,,,0.00,Wunderground v.1.15,2013-04-06 14:38:00,
2013-04-06 10:44:00,38.2,20.7,30.31,SE,126,6.0,7.0,49,0.00,,,0.00,Wunderground v.1.15,2013-04-06 14:44:00,
2013-04-06 10:50:00,38.7,22.1,30.31,East,81,3.0,3.0,51,0.00,,,0.00,Wunderground v.1.15,2013-04-06 14:50:00,
2013-04-06 10:58:00,38.6,20.6,30.32,NNE,32,5.0,11.0,48,0.00,,,0.00,Wunderground v.1.15,2013-04-06 14:58:00,
2013-04-06 11:04:00,38.8,21.7,30.31,NW,310,4.0,5.0,50,0.00,,,0.00,Wunderground v.1.15,2013-04-06 15:04:00,
2013-04-06 11:10:00,39.0,20.5,30.32,ENE,64,3.0,3.0,47,0.00,,,0.00,Wunderground v.1.15,2013-04-06 15:10:00,
2013-04-06 11:16:00,39.5,25.1,30.32,NNE,32,3.0,4.0,56,0.00,,,0.00,Wunderground v.1.15,2013-04-06 15:16:00,
2013-04-06 11:22:00,40.1,24.8,30.32,North,360,4.0,5.0,54,0.00,,,0.00,Wunderground v.1.15,2013-04-06 15:22:00,
2013-04-06 11:28:00,40.4,24.1,30.31,WNW,286,4.0,8.0,52,0.00,,,0.00,Wunderground v.1.15,2013-04-06 15:28:00,
2013-04-06 11:34:00,40.5,22.8,30.32,NNE,17,6.0,7.0,49,0.00,,,0.00,Wunderground v.1.15,2013-04-06 15:34:00,
2013-04-06 11:40:00,40.8,23.1,30.31,ENE,64,6.0,8.0,49,0.00,,,0.00,Wunderground v.1.15,2013-04-06 15:40:00,
2013-04-06 11:46:00,40.9,22.7,30.31,NNE,19,5.0,9.0,48,0.00,,,0.00,Wunderground v.1.15,2013-04-06 15:46:00,
2013-04-06 11:52:00,41.8,23.0,30.31,NNE,27,7.0,7.0,47,0.00,,,0.00,Wunderground v.1.15,2013-04-06 15:52:00,
2013-04-06 11:58:00,42.0,23.7,30.31,NNE,24,7.0,8.0,48,0.00,,,0.00,Wunderground v.1.15,2013-04-06 15:58:00,
2013-04-06 12:04:00,41.8,22.5,30.31,NW,323,5.0,8.0,46,0.00,,,0.00,Wunderground v.1.15,2013-04-06 16:04:00,
2013-04-06 12:10:00,42.2,22.9,30.30,ENE,71,4.0,4.0,46,0.00,,,0.00,Wunderground v.1.15,2013-04-06 16:10:00,
2013-04-06 12:18:00,43.2,22.7,30.30,NNE,16,4.0,7.0,44,0.00,,,0.00,Wunderground v.1.15,2013-04-06 16:18:00,
2013-04-06 12:24:00,43.4,23.4,30.30,NNE,23,4.0,4.0,45,0.00,,,0.00,Wunderground v.1.15,2013-04-06 16:24:00,
2013-04-06 12:30:00,43.9,21.1,30.30,East,98,4.0,4.0,40,0.00,,,0.00,Wunderground v.1.15,2013-04-06 16:30:00,
2013-04-06 12:38:00,44.2,21.4,30.29,East,94,5.0,5.0,40,0.00,,,0.00,Wunderground v.1.15,2013-04-06 16:38:00,
2013-04-06 12:46:00,44.4,21.6,30.29,NE,43,6.0,9.0,40,0.00,,,0.00,Wunderground v.1.15,2013-04-06 16:46:00,
2013-04-06 12:52:00,44.0,21.8,30.29,NE,55,5.0,6.0,41,0.00,,,0.00,Wunderground v.1.15,2013-04-06 16:52:00,
2013-04-06 12:58:00,44.9,24.3,30.29,SW,220,3.0,6.0,44,0.00,,,0.00,Wunderground v.1.15,2013-04-06 16:58:00,
2013-04-06 13:08:00,45.2,19.8,30.28,ESE,102,3.0,6.0,36,0.00,,,0.00,Wunderground v.1.15,2013-04-06 17:08:00,
2013-04-06 13:14:00,45.6,20.1,30.28,NE,38,4.0,5.0,36,0.00,,,0.00,Wunderground v.1.15,2013-04-06 17:14:00,
2013-04-06 13:20:00,46.1,22.5,30.28,NNE,15,3.0,3.0,39,0.00,,,0.00,Wunderground v.1.15,2013-04-06 17:20:00,
2013-04-06 13:26:00,48.5,20.7,30.27,SE,128,4.0,9.0,33,0.00,,,0.00,Wunderground v.1.15,2013-04-06 17:26:00,
2013-04-06 13:32:00,48.3,18.3,30.27,SSW,208,4.0,8.0,30,0.00,,,0.00,Wunderground v.1.15,2013-04-06 17:32:00,
2013-04-06 13:38:00,48.3,17.5,30.27,ESE,111,3.0,8.0,29,0.00,,,0.00,Wunderground v.1.15,2013-04-06 17:38:00,
2013-04-06 13:48:00,48.9,18.8,30.27,SSW,192,2.0,8.0,30,0.00,,,0.00,Wunderground v.1.15,2013-04-06 17:48:00,
2013-04-06 13:54:00,48.6,16.1,30.26,East,98,4.0,10.0,27,0.00,,,0.00,Wunderground v.1.15,2013-04-06 17:54:00,
2013-04-06 14:01:00,48.6,12.4,30.26,ESE,105,5.0,5.0,23,0.00,,,0.00,Wunderground v.1.15,2013-04-06 18:01:00,
2013-04-06 14:06:00,49.7,18.7,30.25,SE,146,4.0,5.0,29,0.00,,,0.00,Wunderground v.1.15,2013-04-06 18:06:00,
2013-04-06 14:12:00,50.8,18.8,30.25,ESE,112,3.0,9.0,28,0.00,,,0.00,Wunderground v.1.15,2013-04-06 18:12:00,
2013-04-06 14:18:00,51.6,19.5,30.25,South,182,3.0,9.0,28,0.00,,,0.00,Wunderground v.1.15,2013-04-06 18:18:00,
2013-04-06 14:24:00,52.2,20.9,30.25,WSW,237,3.0,6.0,29,0.00,,,0.00,Wunderground v.1.15,2013-04-06 18:24:00,
2013-04-06 14:30:00,51.8,19.7,30.24,WSW,237,4.0,4.0,28,0.00,,,0.00,Wunderground v.1.15,2013-04-06 18:30:00,
2013-04-06 14:36:00,51.3,21.6,30.24,SE,130,3.0,4.0,31,0.00,,,0.00,Wunderground v.1.15,2013-04-06 18:36:00,
2013-04-06 14:42:00,52.5,21.9,30.24,SE,127,4.0,10.0,30,0.00,,,0.00,Wunderground v.1.15,2013-04-06 18:42:00,
2013-04-06 14:48:00,52.6,18.6,30.24,SW,227,6.0,10.0,26,0.00,,,0.00,Wunderground v.1.15,2013-04-06 18:48:00,
2013-04-06 14:54:00,53.6,20.4,30.24,South,189,6.0,11.0,27,0.00,,,0.00,Wunderground v.1.15,2013-04-06 18:54:00,
2013-04-06 15:00:00,53.5,18.5,30.24,East,96,4.0,7.0,25,0.00,,,0.00,Wunderground v.1.15,2013-04-06 19:00:00,
2013-04-06 15:08:00,53.1,20.0,30.23,SW,228,7.0,11.0,27,0.00,,,0.00,Wunderground v.1.15,2013-04-06 19:08:00,
2013-04-06 15:16:00,54.5,19.3,30.23,SSE,153,6.0,12.0,25,0.00,,,0.00,Wunderground v.1.15,2013-04-06 19:16:00,
2013-04-06 15:22:00,54.2,18.1,30.22,SE,133,6.0,6.0,24,0.00,,,0.00,Wunderground v.1.15,2013-04-06 19:22:00,
2013-04-06 15:28:00,53.6,17.6,30.22,SSE,153,4.0,6.0,24,0.00,,,0.00,Wunderground v.1.15,2013-04-06 19:28:00,
2013-04-06 15:34:00,55.4,18.2,30.21,South,182,6.0,11.0,23,0.00,,,0.00,Wunderground v.1.15,2013-04-06 19:34:00,
2013-04-06 15:40:00,55.2,19.0,30.21,SW,217,9.0,9.0,24,0.00,,,0.00,Wunderground v.1.15,2013-04-06 19:40:00,
2013-04-06 15:46:00,54.8,23.1,30.21,South,173,6.0,9.0,29,0.00,,,0.00,Wunderground v.1.15,2013-04-06 19:46:00,
2013-04-06 15:52:00,55.5,20.2,30.20,South,172,5.0,9.0,25,0.00,,,0.00,Wunderground v.1.15,2013-04-06 19:52:00,
2013-04-06 15:58:00,55.4,21.9,30.20,SSE,165,5.0,9.0,27,0.00,,,0.00,Wunderground v.1.15,2013-04-06 19:58:00,
2013-04-06 16:04:00,56.2,23.5,30.20,SSW,202,6.0,12.0,28,0.00,,,0.00,Wunderground v.1.15,2013-04-06 20:04:00,
2013-04-06 16:10:00,55.4,20.1,30.19,ESE,123,6.0,8.0,25,0.00,,,0.00,Wunderground v.1.15,2013-04-06 20:10:00,
2013-04-06 16:16:00,55.8,17.5,30.19,South,190,9.0,12.0,22,0.00,,,0.00,Wunderground v.1.15,2013-04-06 20:16:00,
2013-04-06 16:22:00,55.8,18.5,30.19,South,171,9.0,15.0,23,0.00,,,0.00,Wunderground v.1.15,2013-04-06 20:22:00,
2013-04-06 16:28:00,55.8,18.5,30.19,SSE,150,10.0,15.0,23,0.00,,,0.00,Wunderground v.1.15,2013-04-06 20:28:00,
2013-04-06 16:34:00,55.3,14.8,30.19,South,177,9.0,11.0,20,0.00,,,0.00,Wunderground v.1.15,2013-04-06 20:34:00,
2013-04-06 16:40:00,56.1,16.6,30.19,SE,146,8.0,8.0,21,0.00,,,0.00,Wunderground v.1.15,2013-04-06 20:40:00,
2013-04-06 16:48:00,56.3,16.8,30.19,SSE,159,9.0,12.0,21,0.00,,,0.00,Wunderground v.1.15,2013-04-06 20:48:00,
2013-04-06 16:54:00,56.2,16.7,30.19,SSE,163,9.0,11.0,21,0.00,,,0.00,Wunderground v.1.15,2013-04-06 20:54:00,
2013-04-06 17:00:00,56.5,18.1,30.19,WSW,251,7.0,7.0,22,0.00,,,0.00,Wunderground v.1.15,2013-04-06 21:00:00,
2013-04-06 17:06:00,56.1,16.6,30.19,South,180,8.0,13.0,21,0.00,,,0.00,Wunderground v.1.15,2013-04-06 21:06:00,
2013-04-06 17:12:00,55.1,16.9,30.19,ESE,111,9.0,9.0,22,0.00,,,0.00,Wunderground v.1.15,2013-04-06 21:12:00,
2013-04-06 17:18:00,54.8,17.7,30.19,SSE,158,9.0,10.0,23,0.00,,,0.00,Wunderground v.1.15,2013-04-06 21:18:00,
2013-04-06 17:24:00,55.3,16.0,30.19,SSW,192,7.0,8.0,21,0.00,,,0.00,Wunderground v.1.15,2013-04-06 21:24:00,
2013-04-06 17:30:00,55.7,16.3,30.19,SSE,162,7.0,7.0,21,0.00,,,0.00,Wunderground v.1.15,2013-04-06 21:30:00,
2013-04-06 17:36:00,55.7,15.2,30.19,South,183,8.0,13.0,20,0.00,,,0.00,Wunderground v.1.15,2013-04-06 21:36:00,
2013-04-06 17:42:00,54.8,15.6,30.19,SE,138,9.0,10.0,21,0.00,,,0.00,Wunderground v.1.15,2013-04-06 21:42:00,
2013-04-06 17:48:00,55.1,16.9,30.19,South,171,8.0,10.0,22,0.00,,,0.00,Wunderground v.1.15,2013-04-06 21:48:00,
2013-04-06 17:54:00,55.3,17.0,30.19,SE,125,6.0,8.0,22,0.00,,,0.00,Wunderground v.1.15,2013-04-06 21:54:00,
2013-04-06 18:00:00,54.8,17.7,30.19,East,98,6.0,6.0,23,0.00,,,0.00,Wunderground v.1.15,2013-04-06 22:00:00,
2013-04-06 18:06:00,54.5,18.4,30.19,SE,125,7.0,10.0,24,0.00,,,0.00,Wunderground v.1.15,2013-04-06 22:06:00,
2013-04-06 18:12:00,54.8,19.6,30.19,SSE,167,7.0,9.0,25,0.00,,,0.00,Wunderground v.1.15,2013-04-06 22:12:00,
2013-04-06 18:18:00,54.1,19.0,30.19,SSE,154,9.0,9.0,25,0.00,,,0.00,Wunderground v.1.15,2013-04-06 22:18:00,
2013-04-06 18:24:00,53.8,19.7,30.19,SSE,160,9.0,10.0,26,0.00,,,0.00,Wunderground v.1.15,2013-04-06 22:24:00,
2013-04-06 18:30:00,53.4,19.3,30.19,South,179,7.0,7.0,26,0.00,,,0.00,Wunderground v.1.15,2013-04-06 22:30:00,
2013-04-06 18:36:00,53.0,19.9,30.19,SE,141,8.0,12.0,27,0.00,,,0.00,Wunderground v.1.15,2013-04-06 22:36:00,
2013-04-06 18:42:00,52.5,19.4,30.19,SSE,150,9.0,9.0,27,0.00,,,0.00,Wunderground v.1.15,2013-04-06 22:42:00,
2013-04-06 18:48:00,52.2,20.0,30.19,SE,138,8.0,11.0,28,0.00,,,0.00,Wunderground v.1.15,2013-04-06 22:48:00,
2013-04-06 18:54:00,51.9,18.9,30.19,SE,139,7.0,10.0,27,0.00,,,0.00,Wunderground v.1.15,2013-04-06 22:54:00,
2013-04-06 19:00:00,51.6,19.5,30.19,SE,138,6.0,10.0,28,0.00,,,0.00,Wunderground v.1.15,2013-04-06 23:00:00,
2013-04-06 19:08:00,51.3,19.3,30.19,SSE,158,7.0,10.0,28,0.00,,,0.00,Wunderground v.1.15,2013-04-06 23:08:00,
2013-04-06 19:14:00,50.9,18.9,30.19,SSE,162,5.0,7.0,28,0.00,,,0.00,Wunderground v.1.15,2013-04-06 23:14:00,
2013-04-06 19:20:00,50.6,18.6,30.19,SE,138,4.0,14.0,28,0.00,,,0.00,Wunderground v.1.15,2013-04-06 23:20:00,
2013-04-06 19:28:00,50.3,19.2,30.19,SSE,149,6.0,14.0,29,0.00,,,0.00,Wunderground v.1.15,2013-04-06 23:28:00,
2013-04-06 19:34:00,50.0,18.9,30.19,SE,130,4.0,10.0,29,0.00,,,0.00,Wunderground v.1.15,2013-04-06 23:34:00,
2013-04-06 19:40:00,49.7,18.7,30.19,SSE,155,6.0,6.0,29,0.00,,,0.00,Wunderground v.1.15,2013-04-06 23:40:00,
2013-04-06 19:46:00,49.5,18.5,30.19,South,174,6.0,12.0,29,0.00,,,0.00,Wunderground v.1.15,2013-04-06 23:46:00,
2013-04-06 19:52:00,49.2,19.0,30.19,SE,124,3.0,4.0,30,0.00,,,0.00,Wunderground v.1.15,2013-04-06 23:52:00,
2013-04-06 19:58:00,48.8,18.7,30.19,South,177,1.0,4.0,30,0.00,,,0.00,Wunderground v.1.15,2013-04-06 23:58:00,
2013-04-06 20:06:00,48.5,18.4,30.19,SSW,194,3.0,6.0,30,0.00,,,0.00,Wunderground v.1.15,2013-04-07 00:06:00,
2013-04-06 20:12:00,48.3,18.3,30.19,SE,145,4.0,15.0,30,0.00,,,0.00,Wunderground v.1.15,2013-04-07 00:12:00,
2013-04-06 20:18:00,48.2,18.2,30.19,South,179,6.0,15.0,30,0.00,,,0.00,Wunderground v.1.15,2013-04-07 00:18:00,
2013-04-06 20:24:00,48.2,18.9,30.18,SSW,194,5.0,8.0,31,0.00,,,0.00,Wunderground v.1.15,2013-04-07 00:24:00,
2013-04-06 20:30:00,48.1,18.8,30.19,South,189,4.0,4.0,31,0.00,,,0.00,Wunderground v.1.15,2013-04-07 00:30:00,
2013-04-06 20:38:00,47.9,19.4,30.19,SW,222,3.0,5.0,32,0.00,,,0.00,Wunderground v.1.15,2013-04-07 00:38:00,
2013-04-06 20:44:00,47.7,20.7,30.19,South,175,3.0,4.0,34,0.00,,,0.00,Wunderground v.1.15,2013-04-07 00:44:00,
2013-04-06 20:50:00,47.5,20.5,30.19,SSW,209,4.0,4.0,34,0.00,,,0.00,Wunderground v.1.15,2013-04-07 00:50:00,
2013-04-06 20:56:00,47.4,20.4,30.19,SW,231,4.0,6.0,34,0.00,,,0.00,Wunderground v.1.15,2013-04-07 00:56:00,
2013-04-06 21:02:00,47.4,21.1,30.20,SSW,200,6.0,6.0,35,0.00,,,0.00,Wunderground v.1.15,2013-04-07 01:02:00,
2013-04-06 21:08:00,47.3,20.3,30.20,SSW,200,6.0,7.0,34,0.00,,,0.00,Wunderground v.1.15,2013-04-07 01:08:00,
2013-04-06 21:14:00,47.4,20.4,30.19,SSW,209,6.0,10.0,34,0.00,,,0.00,Wunderground v.1.15,2013-04-07 01:14:00,
2013-04-06 21:20:00,47.4,21.1,30.20,SSW,210,6.0,9.0,35,0.00,,,0.00,Wunderground v.1.15,2013-04-07 01:20:00,
2013-04-06 21:28:00,47.2,20.2,30.19,SW,225,5.0,10.0,34,0.00,,,0.00,Wunderground v.1.15,2013-04-07 01:28:00,
2013-04-06 21:34:00,47.1,20.1,30.20,SSW,209,5.0,9.0,34,0.00,,,0.00,Wunderground v.1.15,2013-04-07 01:34:00,
2013-04-06 21:40:00,47.1,20.1,30.19,SSW,213,6.0,6.0,34,0.00,,,0.00,Wunderground v.1.15,2013-04-07 01:40:00,
2013-04-06 21:46:00,47.1,20.8,30.20,SSW,192,6.0,7.0,35,0.00,,,0.00,Wunderground v.1.15,2013-04-07 01:46:00,
2013-04-06 21:52:00,46.9,20.6,30.20,WSW,240,5.0,6.0,35,0.00,,,0.00,Wunderground v.1.15,2013-04-07 01:52:00,
2013-04-06 21:58:00,46.6,21.0,30.20,WSW,237,3.0,6.0,36,0.00,,,0.00,Wunderground v.1.15,2013-04-07 01:58:00,
2013-04-06 22:04:00,46.1,22.5,30.19,WSW,238,2.0,4.0,39,0.00,,,0.00,Wunderground v.1.15,2013-04-07 02:04:00,
2013-04-06 22:10:00,45.6,21.4,30.19,WSW,240,3.0,3.0,38,0.00,,,0.00,Wunderground v.1.15,2013-04-07 02:10:00,
2013-04-06 22:16:00,45.4,23.6,30.19,WSW,240,3.0,4.0,42,0.00,,,0.00,Wunderground v.1.15,2013-04-07 02:16:00,
2013-04-06 22:22:00,44.7,24.1,30.19,WSW,240,3.0,3.0,44,0.00,,,0.00,Wunderground v.1.15,2013-04-07 02:22:00,
2013-04-06 22:28:00,44.0,24.0,30.19,SW,229,2.0,5.0,45,0.00,,,0.00,Wunderground v.1.15,2013-04-07 02:28:00,
2013-04-06 22:34:00,43.7,23.2,30.19,SW,221,3.0,3.0,44,0.00,,,0.00,Wunderground v.1.15,2013-04-07 02:34:00,
2013-04-06 22:40:00,43.6,24.2,30.19,SW,235,3.0,3.0,46,0.00,,,0.00,Wunderground v.1.15,2013-04-07 02:40:00,
2013-04-06 22:48:00,43.4,24.0,30.18,SW,234,3.0,4.0,46,0.00,,,0.00,Wunderground v.1.15,2013-04-07 02:48:00,
2013-04-06 22:54:00,43.1,25.7,30.18,SW,236,3.0,4.0,50,0.00,,,0.00,Wunderground v.1.15,2013-04-07 02:54:00,
2013-04-06 23:00:00,43.1,23.2,30.18,WSW,247,4.0,5.0,45,0.00,,,0.00,Wunderground v.1.15,2013-04-07 03:00:00,
2013-04-06 23:06:00,43.8,23.8,30.18,WSW,240,5.0,6.0,45,0.00,,,0.00,Wunderground v.1.15,2013-04-07 03:06:00,
2013-04-06 23:12:00,44.0,26.0,30.18,SSW,199,4.0,5.0,49,0.00,,,0.00,Wunderground v.1.15,2013-04-07 03:12:00,
2013-04-06 23:18:00,43.9,24.4,30.17,SW,218,3.0,6.0,46,0.00,,,0.00,Wunderground v.1.15,2013-04-07 03:18:00,
2013-04-06 23:24:00,44.1,22.4,30.17,SW,221,5.0,5.0,42,0.00,,,0.00,Wunderground v.1.15,2013-04-07 03:24:00,
2013-04-06 23:30:00,45.2,23.4,30.17,SW,229,5.0,5.0,42,0.00,,,0.00,Wunderground v.1.15,2013-04-07 03:30:00,
2013-04-06 23:36:00,45.2,24.6,30.18,SW,236,4.0,6.0,44,0.00,,,0.00,Wunderground v.1.15,2013-04-07 03:36:00,
2013-04-06 23:42:00,45.2,22.9,30.18,SW,221,4.0,6.0,41,0.00,,,0.00,Wunderground v.1.15,2013-04-07 03:42:00,
2013-04-06 23:48:00,45.1,24.5,30.17,SW,223,3.0,6.0,44,0.00,,,0.00,Wunderground v.1.15,2013-04-07 03:48:00,
2013-04-06 23:58:00,44.5,25.0,30.17,SW,221,1.0,2.0,46,0.00,,,0.00,Wunderground v.1.15,2013-04-07 03:58:00,